[Date Prev][Date Next][Thread Prev][Thread Next] - [Date Index][Thread Index][Author Index]
2 Line ISS Keps 8-28
- Subject: [sarex] 2 Line ISS Keps 8-28
- From: "Dave Larsen PhD" <doc@xxxxxxxxxxx>
- Date: Tue, 28 Aug 2001 10:39:32 -0700
ISS
1 25544U 98067A 01240.53408196 .00027864 00000-0 37797-3 0 3923
2 25544 51.6412 84.3451 0008361 45.3892 352.6450 15.57393501158373
----
Via the sarex mailing list at AMSAT.ORG courtesy of AMSAT-NA.
To unsubscribe, send "unsubscribe sarex" to Majordomo@amsat.org
AMSAT Home